Tracking 20083 objects as of 10-Dec-2019
HD Live streaming from Space Station
objects crossing your sky now

PEGASUS R/B

Track PEGASUS R/B now!
10-day predictions


NORAD ID: 32766
Int'l Code: 2008-017B
Perigee: 371.3 km
Apogee: 540.4 km
Inclination: 13.0 °
Period: 93.6 minutes
Semi major axis: 6826 km
RCS: 1.2481 m2 (large)
Launch date: April 16, 2008
Source: United States (US)
Launch site: Pegasus launched from Western Range Air Space (WRAS)

Note: This is a ROCKET BODY
aabbcc
Your satellite tracking list
Your tracking list is empty




NASA's NSSDC Master Catalog

Two Line Element Set (TLE):
1 32766U 08017B   19344.14363636  .00007384  00000-0  11516-3 0  9992
2 32766  13.0008 349.1106 0123831 273.6758  84.9371 15.39127782642849
Source of the keplerian elements: AFSPC